Tracking 19832 objects as of 24-Aug-2019
HD Live streaming from Space Station
objects crossing your sky now

COSMOS 2251 DEB

Track COSMOS 2251 DEB now!
10-day predictions


NORAD ID: 35614
Int'l Code: 1993-036ANH
Perigee: 663.1 km
Apogee: 807.1 km
Inclination: 74.0 °
Period: 99.4 minutes
Semi major axis: 7106 km
RCS: 0.0173 m2 (small)
Launch date: June 16, 1993
Source: Commonwealth of Independent States (former USSR) (CIS)
Launch site: PLESETSK MISSILE AND SPACE COMPLEX (PKMTR)

Note: This is SATELLITE DEBRIS
aabbcc
Your satellite tracking list
Your tracking list is empty




NASA's NSSDC Master Catalog

Two Line Element Set (TLE):
1 35614U 93036ANH 19235.09348355  .00000162  00000-0  47235-4 0  9991
2 35614  73.9646  21.5447 0101288  45.8432 315.0998 14.49294643543525
Source of the keplerian elements: AFSPC